Time,TemperatureF,DewpointF,PressureIn,WindDirection,WindDirectionDegrees,WindSpeedMPH,WindSpeedGustMPH,Humidity,HourlyPrecipIn,Conditions,Clouds,dailyrainin,SoftwareType,DateUTC
2013-02-19 00:01:00,43.0,16.0,-100.00,West,277,5.0,14.0,33,-99.99,,,-99.99,,2013-02-19 08:01:00,
2013-02-19 00:11:00,43.0,16.0,-100.00,West,277,5.0,14.0,33,-99.99,,,-99.99,,2013-02-19 08:11:00,
2013-02-19 00:21:00,41.0,12.0,-100.00,SSE,158,4.0,8.0,29,-99.99,,,-99.99,,2013-02-19 08:21:00,
2013-02-19 00:31:00,41.0,12.0,-100.00,SSE,158,4.0,8.0,29,-99.99,,,-99.99,,2013-02-19 08:31:00,
2013-02-19 00:42:00,42.0,13.0,-100.00,SE,136,5.0,11.0,30,-99.99,,,-99.99,,2013-02-19 08:42:00,
2013-02-19 00:52:00,42.0,13.0,-100.00,SE,136,5.0,11.0,30,-99.99,,,-99.99,,2013-02-19 08:52:00,
2013-02-19 01:01:00,42.0,9.0,-100.00,South,186,7.0,19.0,26,-99.99,,,-99.99,,2013-02-19 09:01:00,
2013-02-19 01:11:00,42.0,9.0,-100.00,South,186,7.0,19.0,26,-99.99,,,-99.99,,2013-02-19 09:11:00,
2013-02-19 01:21:00,41.0,18.0,-100.00,SSW,202,15.0,23.0,39,-99.99,,,-99.99,,2013-02-19 09:21:00,
2013-02-19 01:31:00,41.0,18.0,-100.00,SSW,202,15.0,23.0,39,-99.99,,,-99.99,,2013-02-19 09:31:00,
2013-02-19 01:41:00,38.0,23.0,-100.00,SSW,212,10.0,21.0,54,-99.99,,,-99.99,,2013-02-19 09:41:00,
2013-02-19 01:53:00,38.0,23.0,-100.00,SSW,212,10.0,21.0,54,-99.99,,,-99.99,,2013-02-19 09:53:00,
2013-02-19 02:01:00,39.0,22.0,-100.00,SE,128,7.0,13.0,51,-99.99,,,-99.99,,2013-02-19 10:01:00,
2013-02-19 02:11:00,39.0,22.0,-100.00,SE,128,7.0,13.0,51,-99.99,,,-99.99,,2013-02-19 10:11:00,
2013-02-19 02:21:00,39.0,22.0,-100.00,SW,217,4.0,12.0,49,-99.99,,,-99.99,,2013-02-19 10:21:00,
2013-02-19 02:31:00,39.0,22.0,-100.00,SW,217,4.0,12.0,49,-99.99,,,-99.99,,2013-02-19 10:31:00,
2013-02-19 02:41:00,37.0,26.0,-100.00,ESE,102,8.0,19.0,65,-99.99,,,-99.99,,2013-02-19 10:41:00,
2013-02-19 02:52:00,37.0,26.0,-100.00,ESE,102,8.0,19.0,65,-99.99,,,-99.99,,2013-02-19 10:52:00,
2013-02-19 03:01:00,38.0,25.0,-100.00,SE,124,11.0,18.0,59,-99.99,,,-99.99,,2013-02-19 11:01:00,
2013-02-19 03:11:00,38.0,25.0,-100.00,SE,124,11.0,18.0,59,-99.99,,,-99.99,,2013-02-19 11:11:00,
2013-02-19 03:21:00,38.0,26.0,-100.00,ESE,112,10.0,18.0,62,-99.99,,,-99.99,,2013-02-19 11:21:00,
2013-02-19 03:32:00,38.0,26.0,-100.00,ESE,112,10.0,18.0,62,-99.99,,,-99.99,,2013-02-19 11:32:00,
2013-02-19 03:42:00,38.0,27.0,-100.00,SE,133,5.0,12.0,64,-99.99,,,-99.99,,2013-02-19 11:42:00,
2013-02-19 03:52:00,38.0,27.0,-100.00,SE,133,5.0,12.0,64,-99.99,,,-99.99,,2013-02-19 11:52:00,
2013-02-19 04:01:00,37.0,29.0,-100.00,SE,141,13.0,20.0,71,-99.99,,,-99.99,,2013-02-19 12:01:00,
2013-02-19 04:12:00,37.0,29.0,-100.00,SE,141,13.0,20.0,71,-99.99,,,-99.99,,2013-02-19 12:12:00,
2013-02-19 04:21:00,36.0,30.0,-100.00,ESE,119,10.0,13.0,80,-99.99,,,-99.99,,2013-02-19 12:21:00,
2013-02-19 04:32:00,36.0,30.0,-100.00,ESE,119,10.0,13.0,80,-99.99,,,-99.99,,2013-02-19 12:32:00,
2013-02-19 04:42:00,35.0,31.0,-100.00,East,93,6.0,11.0,83,-99.99,,,-99.99,,2013-02-19 12:42:00,
2013-02-19 04:52:00,35.0,31.0,-100.00,East,93,6.0,11.0,83,-99.99,,,-99.99,,2013-02-19 12:52:00,
2013-02-19 05:02:00,35.0,31.0,-100.00,East,80,5.0,7.0,87,-99.99,,,-99.99,,2013-02-19 13:02:00,
2013-02-19 05:11:00,35.0,31.0,-100.00,East,80,5.0,7.0,87,-99.99,,,-99.99,,2013-02-19 13:11:00,
2013-02-19 05:22:00,35.0,32.0,-100.00,East,96,2.0,8.0,87,-99.99,,,-99.99,,2013-02-19 13:22:00,
2013-02-19 05:32:00,35.0,32.0,-100.00,East,96,2.0,8.0,87,-99.99,,,-99.99,,2013-02-19 13:32:00,
2013-02-19 05:41:00,34.0,32.0,-100.00,NNE,18,4.0,7.0,91,-99.99,,,-99.99,,2013-02-19 13:41:00,
2013-02-19 05:52:00,34.0,32.0,-100.00,NNE,18,4.0,7.0,91,-99.99,,,-99.99,,2013-02-19 13:52:00,
2013-02-19 06:01:00,34.0,32.0,-100.00,North,357,3.0,6.0,92,-99.99,,,-99.99,,2013-02-19 14:01:00,
2013-02-19 06:11:00,34.0,32.0,-100.00,North,357,3.0,6.0,92,-99.99,,,-99.99,,2013-02-19 14:11:00,
2013-02-19 06:21:00,36.0,26.0,-100.00,WSW,239,3.0,15.0,68,-99.99,,,-99.99,,2013-02-19 14:21:00,
2013-02-19 06:32:00,36.0,26.0,-100.00,WSW,239,3.0,15.0,68,-99.99,,,-99.99,,2013-02-19 14:32:00,
2013-02-19 06:42:00,36.0,23.0,-100.00,WSW,239,8.0,13.0,59,-99.99,,,-99.99,,2013-02-19 14:42:00,
2013-02-19 06:52:00,36.0,23.0,-100.00,WSW,239,8.0,13.0,59,-99.99,,,-99.99,,2013-02-19 14:52:00,
2013-02-19 07:01:00,35.0,24.0,-100.00,SW,229,11.0,19.0,65,-99.99,,,-99.99,,2013-02-19 15:01:00,
2013-02-19 07:11:00,35.0,24.0,-100.00,SW,229,11.0,19.0,65,-99.99,,,-99.99,,2013-02-19 15:11:00,
2013-02-19 07:21:00,35.0,21.0,-100.00,South,175,9.0,17.0,55,-99.99,,,-99.99,,2013-02-19 15:21:00,
2013-02-19 07:31:00,35.0,21.0,-100.00,South,175,9.0,17.0,55,-99.99,,,-99.99,,2013-02-19 15:31:00,
2013-02-19 07:42:00,35.0,22.0,-100.00,South,188,6.0,11.0,60,-99.99,,,-99.99,,2013-02-19 15:42:00,
2013-02-19 07:52:00,35.0,22.0,-100.00,South,188,6.0,11.0,60,-99.99,,,-99.99,,2013-02-19 15:52:00,
2013-02-19 08:01:00,35.0,20.0,-100.00,SW,217,5.0,9.0,53,-99.99,,,-99.99,,2013-02-19 16:01:00,
2013-02-19 08:11:00,35.0,20.0,-100.00,SW,217,5.0,9.0,53,-99.99,,,-99.99,,2013-02-19 16:11:00,
2013-02-19 08:21:00,36.0,21.0,-100.00,South,179,4.0,7.0,54,-99.99,,,-99.99,,2013-02-19 16:21:00,
2013-02-19 08:32:00,36.0,21.0,-100.00,South,179,4.0,7.0,54,-99.99,,,-99.99,,2013-02-19 16:32:00,
2013-02-19 08:41:00,36.0,21.0,-100.00,SW,224,12.0,19.0,54,-99.99,,,-99.99,,2013-02-19 16:41:00,
2013-02-19 08:52:00,36.0,21.0,-100.00,SW,224,12.0,19.0,54,-99.99,,,-99.99,,2013-02-19 16:52:00,
2013-02-19 09:01:00,35.0,20.0,-100.00,SW,220,19.0,27.0,53,-99.99,,,-99.99,,2013-02-19 17:01:00,
2013-02-19 09:11:00,35.0,20.0,-100.00,SW,220,19.0,27.0,53,-99.99,,,-99.99,,2013-02-19 17:11:00,
2013-02-19 09:21:00,37.0,17.0,-100.00,SSW,200,10.0,25.0,44,-99.99,,,-99.99,,2013-02-19 17:21:00,
2013-02-19 09:32:00,37.0,17.0,-100.00,SSW,200,10.0,25.0,44,-99.99,,,-99.99,,2013-02-19 17:32:00,
2013-02-19 09:41:00,38.0,18.0,-100.00,SSW,213,14.0,19.0,44,-99.99,,,-99.99,,2013-02-19 17:41:00,
2013-02-19 09:52:00,38.0,18.0,-100.00,SSW,213,14.0,19.0,44,-99.99,,,-99.99,,2013-02-19 17:52:00,
2013-02-19 10:01:00,37.0,17.0,-100.00,SW,224,14.0,22.0,43,-99.99,,,-99.99,,2013-02-19 18:01:00,
2013-02-19 10:11:00,37.0,17.0,-100.00,SW,224,14.0,22.0,43,-99.99,,,-99.99,,2013-02-19 18:11:00,
2013-02-19 10:21:00,38.0,13.0,-100.00,SSW,206,16.0,26.0,36,-99.99,,,-99.99,,2013-02-19 18:21:00,
2013-02-19 10:31:00,38.0,13.0,-100.00,SSW,206,16.0,26.0,36,-99.99,,,-99.99,,2013-02-19 18:31:00,
2013-02-19 10:41:00,39.0,18.0,-100.00,SSW,200,14.0,24.0,42,-99.99,,,-99.99,,2013-02-19 18:41:00,
2013-02-19 10:52:00,39.0,18.0,-100.00,SSW,200,14.0,24.0,42,-99.99,,,-99.99,,2013-02-19 18:52:00,
2013-02-19 11:01:00,37.0,17.0,-100.00,SW,219,20.0,29.0,44,-99.99,,,-99.99,,2013-02-19 19:01:00,
2013-02-19 11:11:00,37.0,17.0,-100.00,SW,219,20.0,29.0,44,-99.99,,,-99.99,,2013-02-19 19:11:00,
2013-02-19 11:21:00,36.0,14.0,-100.00,SW,220,24.0,34.0,41,-99.99,,,-99.99,,2013-02-19 19:21:00,
2013-02-19 11:31:00,36.0,14.0,-100.00,SW,220,24.0,34.0,41,-99.99,,,-99.99,,2013-02-19 19:31:00,
2013-02-19 11:41:00,37.0,14.0,-100.00,SW,236,15.0,26.0,37,-99.99,,,-99.99,,2013-02-19 19:41:00,
2013-02-19 11:52:00,37.0,14.0,-100.00,SW,236,15.0,26.0,37,-99.99,,,-99.99,,2013-02-19 19:52:00,
2013-02-19 12:01:00,37.0,9.0,-100.00,SW,216,10.0,22.0,30,-99.99,,,-99.99,,2013-02-19 20:01:00,
2013-02-19 12:11:00,37.0,9.0,-100.00,SW,216,10.0,22.0,30,-99.99,,,-99.99,,2013-02-19 20:11:00,
2013-02-19 12:21:00,39.0,9.0,-100.00,South,174,10.0,22.0,29,-99.99,,,-99.99,,2013-02-19 20:21:00,
2013-02-19 12:32:00,39.0,9.0,-100.00,South,174,10.0,22.0,29,-99.99,,,-99.99,,2013-02-19 20:32:00,
2013-02-19 12:41:00,39.0,7.0,-100.00,SE,140,12.0,30.0,26,-99.99,,,-99.99,,2013-02-19 20:41:00,
2013-02-19 12:52:00,39.0,7.0,-100.00,SE,140,12.0,30.0,26,-99.99,,,-99.99,,2013-02-19 20:52:00,
2013-02-19 13:01:00,39.0,8.0,-100.00,SE,128,21.0,31.0,27,-99.99,,,-99.99,,2013-02-19 21:01:00,
2013-02-19 13:11:00,39.0,8.0,-100.00,SE,128,21.0,31.0,27,-99.99,,,-99.99,,2013-02-19 21:11:00,
2013-02-19 13:21:00,41.0,7.0,-100.00,SSE,164,20.0,38.0,24,-99.99,,,-99.99,,2013-02-19 21:21:00,
2013-02-19 13:31:00,41.0,7.0,-100.00,SSE,164,20.0,38.0,24,-99.99,,,-99.99,,2013-02-19 21:31:00,
2013-02-19 13:42:00,41.0,10.0,-100.00,SSE,147,17.0,30.0,28,-99.99,,,-99.99,,2013-02-19 21:42:00,
2013-02-19 13:52:00,41.0,10.0,-100.00,SSE,147,17.0,30.0,28,-99.99,,,-99.99,,2013-02-19 21:52:00,
2013-02-19 14:01:00,40.0,8.0,-100.00,SE,138,21.0,30.0,27,-99.99,,,-99.99,,2013-02-19 22:01:00,
2013-02-19 14:11:00,40.0,8.0,-100.00,SE,138,21.0,30.0,27,-99.99,,,-99.99,,2013-02-19 22:11:00,
2013-02-19 14:21:00,41.0,12.0,-100.00,SE,128,21.0,35.0,30,-99.99,,,-99.99,,2013-02-19 22:21:00,
2013-02-19 14:32:00,41.0,12.0,-100.00,SE,128,21.0,35.0,30,-99.99,,,-99.99,,2013-02-19 22:32:00,
2013-02-19 14:41:00,41.0,11.0,-100.00,SE,127,19.0,26.0,29,-99.99,,,-99.99,,2013-02-19 22:41:00,
2013-02-19 14:52:00,41.0,11.0,-100.00,SE,127,19.0,26.0,29,-99.99,,,-99.99,,2013-02-19 22:52:00,
2013-02-19 15:01:00,41.0,11.0,-100.00,SE,143,14.0,31.0,29,-99.99,,,-99.99,,2013-02-19 23:01:00,
2013-02-19 15:11:00,41.0,11.0,-100.00,SE,143,14.0,31.0,29,-99.99,,,-99.99,,2013-02-19 23:11:00,
2013-02-19 15:21:00,42.0,13.0,-100.00,SSW,212,13.0,28.0,30,-99.99,,,-99.99,,2013-02-19 23:21:00,
2013-02-19 15:32:00,42.0,13.0,-100.00,SSW,212,13.0,28.0,30,-99.99,,,-99.99,,2013-02-19 23:32:00,
2013-02-19 15:41:00,38.0,12.0,-100.00,SW,219,9.0,19.0,33,-99.99,,,-99.99,,2013-02-19 23:41:00,
2013-02-19 15:52:00,38.0,12.0,-100.00,SW,219,9.0,19.0,33,-99.99,,,-99.99,,2013-02-19 23:52:00,
2013-02-19 16:01:00,38.0,14.0,-100.00,SSE,150,11.0,19.0,37,-99.99,,,-99.99,,2013-02-20 00:01:00,
2013-02-19 16:11:00,38.0,14.0,-100.00,SSE,150,11.0,19.0,37,-99.99,,,-99.99,,2013-02-20 00:11:00,
2013-02-19 16:21:00,38.0,12.0,-100.00,SE,124,14.0,21.0,34,-99.99,,,-99.99,,2013-02-20 00:21:00,
2013-02-19 16:31:00,38.0,12.0,-100.00,SE,124,14.0,21.0,34,-99.99,,,-99.99,,2013-02-20 00:31:00,
2013-02-19 16:41:00,38.0,10.0,-100.00,SE,138,11.0,19.0,31,-99.99,,,-99.99,,2013-02-20 00:41:00,
2013-02-19 16:52:00,38.0,10.0,-100.00,SE,138,11.0,19.0,31,-99.99,,,-99.99,,2013-02-20 00:52:00,
2013-02-19 17:02:00,37.0,12.0,-100.00,West,263,5.0,13.0,36,-99.99,,,-99.99,,2013-02-20 01:02:00,
2013-02-19 17:11:00,37.0,12.0,-100.00,West,263,5.0,13.0,36,-99.99,,,-99.99,,2013-02-20 01:11:00,
2013-02-19 17:21:00,36.0,14.0,-100.00,NW,305,8.0,17.0,39,-99.99,,,-99.99,,2013-02-20 01:21:00,
2013-02-19 17:32:00,36.0,14.0,-100.00,NW,305,8.0,17.0,39,-99.99,,,-99.99,,2013-02-20 01:32:00,
2013-02-19 17:41:00,34.0,13.0,-100.00,WSW,241,13.0,19.0,40,-99.99,,,-99.99,,2013-02-20 01:41:00,
2013-02-19 17:52:00,34.0,13.0,-100.00,WSW,241,13.0,19.0,40,-99.99,,,-99.99,,2013-02-20 01:52:00,
2013-02-19 18:01:00,33.0,15.0,-100.00,WSW,241,9.0,18.0,46,-99.99,,,-99.99,,2013-02-20 02:01:00,
2013-02-19 18:11:00,33.0,15.0,-100.00,WSW,241,9.0,18.0,46,-99.99,,,-99.99,,2013-02-20 02:11:00,
2013-02-19 18:21:00,34.0,13.0,-100.00,NNW,336,3.0,8.0,41,-99.99,,,-99.99,,2013-02-20 02:21:00,
2013-02-19 18:31:00,34.0,13.0,-100.00,NNW,336,3.0,8.0,41,-99.99,,,-99.99,,2013-02-20 02:31:00,
2013-02-19 18:41:00,33.0,14.0,-100.00,NNW,346,1.0,4.0,45,-99.99,,,-99.99,,2013-02-20 02:41:00,
2013-02-19 18:52:00,33.0,14.0,-100.00,NNW,346,1.0,4.0,45,-99.99,,,-99.99,,2013-02-20 02:52:00,
2013-02-19 19:01:00,31.0,14.0,-100.00,NNE,31,4.0,6.0,49,-99.99,,,-99.99,,2013-02-20 03:01:00,
2013-02-19 19:12:00,31.0,14.0,-100.00,NNE,31,4.0,6.0,49,-99.99,,,-99.99,,2013-02-20 03:12:00,
2013-02-19 19:41:00,29.0,13.0,-100.00,NNE,24,4.0,8.0,52,-99.99,,,-99.99,,2013-02-20 03:41:00,
2013-02-19 19:42:00,29.0,13.0,-100.00,NNE,21,3.0,6.0,51,-99.99,,,-99.99,,2013-02-20 03:42:00,
2013-02-19 19:52:00,29.0,13.0,-100.00,NNE,21,3.0,6.0,51,-99.99,,,-99.99,,2013-02-20 03:52:00,
2013-02-19 20:01:00,29.0,14.0,-100.00,North,10,7.0,11.0,53,-99.99,,,-99.99,,2013-02-20 04:01:00,
2013-02-19 20:11:00,29.0,14.0,-100.00,North,10,7.0,11.0,53,-99.99,,,-99.99,,2013-02-20 04:11:00,
2013-02-19 20:21:00,29.0,13.0,-100.00,NNE,24,4.0,8.0,52,-99.99,,,-99.99,,2013-02-20 04:21:00,
2013-02-19 20:31:00,29.0,13.0,-100.00,NNE,24,4.0,8.0,52,-99.99,,,-99.99,,2013-02-20 04:31:00,
2013-02-19 21:02:00,30.0,20.0,-100.00,NNW,333,9.0,17.0,66,-99.99,,,-99.99,,2013-02-20 05:02:00,
2013-02-19 21:12:00,30.0,20.0,-100.00,NNW,333,9.0,17.0,66,-99.99,,,-99.99,,2013-02-20 05:12:00,
2013-02-19 21:22:00,30.0,20.0,-100.00,NW,308,15.0,22.0,65,-99.99,,,-99.99,,2013-02-20 05:22:00,
2013-02-19 21:32:00,30.0,20.0,-100.00,NW,308,15.0,22.0,65,-99.99,,,-99.99,,2013-02-20 05:32:00,
2013-02-19 21:43:00,31.0,19.0,-100.00,NW,326,15.0,23.0,62,-99.99,,,-99.99,,2013-02-20 05:43:00,
2013-02-19 21:52:00,31.0,19.0,-100.00,NW,326,15.0,23.0,62,-99.99,,,-99.99,,2013-02-20 05:52:00,
2013-02-19 22:01:00,31.0,19.0,-100.00,NNW,330,13.0,19.0,61,-99.99,,,-99.99,,2013-02-20 06:01:00,
2013-02-19 22:11:00,31.0,19.0,-100.00,NNW,330,13.0,19.0,61,-99.99,,,-99.99,,2013-02-20 06:11:00,
2013-02-19 22:21:00,30.0,19.0,-100.00,NNW,339,10.0,14.0,63,-99.99,,,-99.99,,2013-02-20 06:21:00,
2013-02-19 22:31:00,30.0,19.0,-100.00,NNW,339,10.0,14.0,63,-99.99,,,-99.99,,2013-02-20 06:31:00,
2013-02-19 22:42:00,29.0,19.0,-100.00,NNW,336,11.0,17.0,65,-99.99,,,-99.99,,2013-02-20 06:42:00,
2013-02-19 22:52:00,29.0,19.0,-100.00,NNW,336,11.0,17.0,65,-99.99,,,-99.99,,2013-02-20 06:52:00,
2013-02-19 23:01:00,29.0,20.0,-100.00,NNW,333,8.0,11.0,68,-99.99,,,-99.99,,2013-02-20 07:01:00,
2013-02-19 23:11:00,29.0,20.0,-100.00,NNW,333,8.0,11.0,68,-99.99,,,-99.99,,2013-02-20 07:11:00,
2013-02-19 23:21:00,29.0,20.0,-100.00,NNW,346,8.0,12.0,69,-99.99,,,-99.99,,2013-02-20 07:21:00,
2013-02-19 23:31:00,29.0,20.0,-100.00,NNW,346,8.0,12.0,69,-99.99,,,-99.99,,2013-02-20 07:31:00,
2013-02-19 23:41:00,29.0,20.0,-100.00,NNW,336,7.0,11.0,69,-99.99,,,-99.99,,2013-02-20 07:41:00,
2013-02-19 23:52:00,29.0,20.0,-100.00,NNW,336,7.0,11.0,69,-99.99,,,-99.99,,2013-02-20 07:52:00,